• în România
  • Lista ţărilor
  • Pe 7 zile
  • Temperatura apei
  • Hartă satelitară
  • Meteo pe hartă
  • Widget-uri
  • user-avatar
    Intrare

    Meteo pe oră la Proschenoe

    Astăzi, 25 Septembrie, Marţi

    Timp Temperatura Precipitaţii Vânt Presiune Umiditate
    00:00 +10°C° 0.4 mm 9 m/s 735 mmHg 86%
    01:00 +10°C° 0.1 mm 8 m/s 735 mmHg 86%
    02:00 +9°C° 0.1 mm 7 m/s 735 mmHg 85%
    03:00 +9°C° 0.1 mm 7 m/s 735 mmHg 84%
    04:00 +8°C° 0 mm 7 m/s 735 mmHg 84%
    05:00 +8°C° 0 mm 6 m/s 735 mmHg 83%
    06:00 +7°C° 0 mm 6 m/s 735 mmHg 83%
    07:00 +8°C° 0 mm 7 m/s 736 mmHg 81%
    08:00 +8°C° 0 mm 7 m/s 736 mmHg 80%
    09:00 +8°C° 0 mm 7 m/s 736 mmHg 79%
    10:00 +8°C° 0 mm 7 m/s 737 mmHg 76%
    11:00 +9°C° 0 mm 7 m/s 737 mmHg 74%
    12:00 +9°C° 0 mm 7 m/s 738 mmHg 71%
    13:00 +9°C° 0.1 mm 7 m/s 738 mmHg 71%
    14:00 +9°C° 0.1 mm 7 m/s 739 mmHg 70%
    15:00 +9°C° 0.1 mm 7 m/s 739 mmHg 70%
    16:00 +9°C° 0 mm 7 m/s 740 mmHg 71%
    17:00 +8°C° 0 mm 7 m/s 741 mmHg 72%
    18:00 +7°C° 0 mm 6 m/s 741 mmHg 73%
    19:00 +7°C° 0 mm 6 m/s 742 mmHg 74%
    20:00 +7°C° 0 mm 6 m/s 742 mmHg 75%
    21:00 +5°C° 0 mm 6 m/s 743 mmHg 76%
    22:00 +5°C° 0 mm 6 m/s 743 mmHg 76%
    23:00 +6°C° 0 mm 5 m/s 744 mmHg 76%

    Mâine, 26 Septembrie, Miercuri

    Timp Temperatura Precipitaţii Vânt Presiune Umiditate
    00:00 +6°C° 0 mm 5 m/s 744 mmHg 76%
    01:00 +5°C° 0 mm 5 m/s 745 mmHg 78%
    02:00 +5°C° 0 mm 5 m/s 745 mmHg 79%
    03:00 +5°C° 0 mm 5 m/s 746 mmHg 81%
    04:00 +3°C° 0 mm 5 m/s 746 mmHg 83%
    05:00 +4°C° 0 mm 4 m/s 747 mmHg 84%
    06:00 +3°C° 0 mm 4 m/s 748 mmHg 86%
    07:00 +3°C° 0 mm 5 m/s 748 mmHg 83%
    08:00 +5°C° 0 mm 5 m/s 749 mmHg 79%
    09:00 +4°C° 0 mm 6 m/s 749 mmHg 76%
    10:00 +5°C° 0 mm 5 m/s 750 mmHg 73%
    11:00 +6°C° 0 mm 5 m/s 750 mmHg 70%
    12:00 +6°C° 0 mm 5 m/s 751 mmHg 67%
    13:00 +7°C° 0 mm 5 m/s 751 mmHg 64%
    14:00 +7°C° 0 mm 4 m/s 751 mmHg 61%
    15:00 +8°C° 0 mm 4 m/s 751 mmHg 58%
    16:00 +7°C° 0 mm 4 m/s 751 mmHg 60%
    17:00 +8°C° 0 mm 3 m/s 751 mmHg 62%
    18:00 +7°C° 0 mm 3 m/s 751 mmHg 64%
    19:00 +7°C° 0 mm 3 m/s 751 mmHg 66%
    20:00 +5°C° 0 mm 3 m/s 751 mmHg 68%
    21:00 +4°C° 0 mm 3 m/s 751 mmHg 70%
    22:00 +4°C° 0 mm 4 m/s 750 mmHg 70%
    23:00 +4°C° 0 mm 4 m/s 750 mmHg 70%

    Poimâine, 27 Septembrie, Joi

    Timp Temperatura Precipitaţii Vânt Presiune Umiditate
    00:00 +3°C° 0 mm 5 m/s 750 mmHg 70%
    01:00 +3°C° 0 mm 6 m/s 749 mmHg 69%
    02:00 +4°C° 0 mm 6 m/s 748 mmHg 69%
    03:00 +4°C° 0 mm 7 m/s 748 mmHg 68%
    04:00 +4°C° 0.1 mm 7 m/s 747 mmHg 68%
    05:00 +4°C° 0.1 mm 8 m/s 746 mmHg 67%
    06:00 +3°C° 0.1 mm 9 m/s 745 mmHg 66%
    07:00 +3°C° 0.8 mm 10 m/s 744 mmHg 69%
    08:00 +3°C° 0.8 mm 10 m/s 743 mmHg 73%
    09:00 +3°C° 0.8 mm 11 m/s 743 mmHg 77%
    10:00 +5°C° 0.5 mm 10 m/s 742 mmHg 79%
    11:00 +5°C° 0.5 mm 10 m/s 742 mmHg 81%
    12:00 +5°C° 0.5 mm 9 m/s 742 mmHg 83%
    13:00 +6°C° 0.3 mm 9 m/s 741 mmHg 84%
    14:00 +6°C° 0.3 mm 9 m/s 741 mmHg 84%
    15:00 +7°C° 0.3 mm 8 m/s 741 mmHg 85%
    16:00 +7°C° 0.3 mm 8 m/s 741 mmHg 85%
    17:00 +8°C° 0.3 mm 7 m/s 741 mmHg 86%
    18:00 +9°C° 0.3 mm 7 m/s 741 mmHg 87%
    19:00 +8°C° 0.1 mm 6 m/s 742 mmHg 87%
    20:00 +8°C° 0.1 mm 5 m/s 743 mmHg 87%
    21:00 +7°C° 0.1 mm 5 m/s 743 mmHg 87%
    22:00 +7°C° 0 mm 4 m/s 743 mmHg 87%
    23:00 +6°C° 0 mm 4 m/s 744 mmHg 87%

    28 Septembrie, Vineri

    Timp Temperatura Precipitaţii Vânt Presiune Umiditate
    00:00 +6°C° 0 mm 4 m/s 744 mmHg 87%
    01:00 +5°C° 0 mm 4 m/s 744 mmHg 87%
    02:00 +5°C° 0 mm 4 m/s 745 mmHg 88%
    03:00 +5°C° 0 mm 4 m/s 745 mmHg 88%
    04:00 +4°C° 0 mm 4 m/s 745 mmHg 89%
    05:00 +4°C° 0 mm 4 m/s 745 mmHg 90%
    06:00 +4°C° 0 mm 3 m/s 745 mmHg 91%
    07:00 +5°C° 0 mm 4 m/s 745 mmHg 85%
    08:00 +7°C° 0 mm 5 m/s 745 mmHg 79%
    09:00 +8°C° 0 mm 6 m/s 745 mmHg 73%
    10:00 +10°C° 0 mm 7 m/s 744 mmHg 70%
    11:00 +11°C° 0 mm 8 m/s 744 mmHg 67%
    12:00 +13°C° 0 mm 9 m/s 743 mmHg 64%
    13:00 +13°C° 0 mm 9 m/s 743 mmHg 69%
    14:00 +13°C° 0 mm 8 m/s 742 mmHg 73%
    15:00 +13°C° 0 mm 8 m/s 741 mmHg 78%
    16:00 +13°C° 0 mm 8 m/s 741 mmHg 78%
    17:00 +13°C° 0 mm 8 m/s 741 mmHg 79%
    18:00 +13°C° 0 mm 8 m/s 740 mmHg 80%
    19:00 +13°C° 0.3 mm 8 m/s 740 mmHg 81%
    20:00 +13°C° 0.3 mm 8 m/s 740 mmHg 82%
    21:00 +13°C° 0.3 mm 8 m/s 739 mmHg 83%
    22:00 +13°C° 0.4 mm 8 m/s 740 mmHg 83%
    23:00 +12°C° 0.4 mm 7 m/s 740 mmHg 82%

    29 Septembrie, Sâmbătă

    Timp Temperatura Precipitaţii Vânt Presiune Umiditate
    00:00 +11°C° 0.4 mm 6 m/s 741 mmHg 82%
    01:00 +10°C° 0 mm 6 m/s 741 mmHg 83%
    02:00 +8°C° 0 mm 5 m/s 742 mmHg 85%
    03:00 +6°C° 0 mm 4 m/s 743 mmHg 87%
    04:00 +6°C° 0 mm 4 m/s 744 mmHg 87%
    05:00 +5°C° 0 mm 3 m/s 745 mmHg 88%
    06:00 +4°C° 0 mm 3 m/s 745 mmHg 89%
    07:00 +4°C° 0 mm 3 m/s 746 mmHg 83%
    08:00 +5°C° 0 mm 3 m/s 746 mmHg 76%
    09:00 +5°C° 0 mm 3 m/s 747 mmHg 70%
    10:00 +7°C° 0 mm 3 m/s 747 mmHg 62%
    11:00 +8°C° 0 mm 3 m/s 748 mmHg 54%
    12:00 +9°C° 0 mm 2 m/s 748 mmHg 47%
    13:00 +9°C° 0 mm 2 m/s 748 mmHg 45%
    14:00 +10°C° 0 mm 2 m/s 748 mmHg 43%
    15:00 +10°C° 0 mm 2 m/s 748 mmHg 41%
    16:00 +9°C° 0 mm 2 m/s 748 mmHg 44%
    17:00 +9°C° 0 mm 2 m/s 749 mmHg 48%
    18:00 +8°C° 0 mm 2 m/s 749 mmHg 51%
    19:00 +8°C° 0 mm 2 m/s 749 mmHg 53%
    20:00 +7°C° 0 mm 2 m/s 750 mmHg 55%
    21:00 +6°C° 0 mm 2 m/s 750 mmHg 57%
    22:00 +6°C° 0 mm 2 m/s 750 mmHg 59%
    23:00 +5°C° 0 mm 2 m/s 751 mmHg 62%

    30 Septembrie, Duminică

    Timp Temperatura Precipitaţii Vânt Presiune Umiditate
    00:00 +5°C° 0 mm 2 m/s 751 mmHg 64%
    01:00 +4°C° 0 mm 2 m/s 751 mmHg 66%
    02:00 +4°C° 0 mm 2 m/s 752 mmHg 68%
    03:00 +4°C° 0 mm 2 m/s 752 mmHg 70%
    04:00 +3°C° 0 mm 2 m/s 752 mmHg 72%
    05:00 +3°C° 0 mm 2 m/s 753 mmHg 73%
    06:00 +3°C° 0 mm 2 m/s 753 mmHg 75%
    07:00 +4°C° 0 mm 2 m/s 753 mmHg 72%
    08:00 +5°C° 0 mm 2 m/s 754 mmHg 69%
    09:00 +6°C° 0 mm 2 m/s 754 mmHg 67%
    10:00 +7°C° 0 mm 2 m/s 754 mmHg 63%
    11:00 +8°C° 0 mm 2 m/s 754 mmHg 59%
    12:00 +9°C° 0 mm 2 m/s 755 mmHg 55%
    13:00 +9°C° 0 mm 2 m/s 754 mmHg 54%
    14:00 +11°C° 0 mm 1 m/s 754 mmHg 52%
    15:00 +11°C° 0 mm 1 m/s 754 mmHg 50%
    16:00 +10°C° 0 mm 1 m/s 754 mmHg 52%
    17:00 +10°C° 0 mm 1 m/s 754 mmHg 55%
    18:00 +8°C° 0 mm 0 m/s 754 mmHg 57%
    19:00 +8°C° 0 mm 0 m/s 754 mmHg 58%
    20:00 +8°C° 0 mm 1 m/s 754 mmHg 58%
    21:00 +8°C° 0 mm 1 m/s 754 mmHg 59%
    22:00 +7°C° 0 mm 1 m/s 754 mmHg 61%
    23:00 +7°C° 0 mm 1 m/s 754 mmHg 62%
    Arată mai mult